Temperature
18 18 18 17 17 17 17 17 17 16 16 16 16 16 16 16 16 16 15 15 15 15 15 15 15 15 15 15 15 15 15 15 15 15 14 14 14 14 14 14 14 14 14
18 18 18 18 17 17 17 17 17 16 16 16 16 16 16 15 15 15 15 15 15 15 15 15 15 15 15 15 15 15 14 14 14 14 14 14 14 14 14 14 14 13 13
18 18 18 17 17 17 17 17 16 16 16 16 16 16 15 15 15 15 15 15 15 15 15 15 15 15 15 14 14 14 14 14 14 14 14 14 13 13 13 13 13 13 13
18 18 17 17 17 17 17 16 16 16 16 16 16 15 15 15 15 15 15 14 14 14 14 14 14 14 14 14 14 14 14 14 14 13 13 13 13 13 13 13 13 13 13
18 18 17 17 17 17 17 16 16 16 16 16 15 15 15 15 15 15 14 14 14 14 14 14 14 14 14 14 14 14 14 13 13 13 13 13 13 12 12 12 12 12 12
18 17 17 17 17 17 17 16 16 16 16 15 15 15 15 15 15 14 14 14 14 14 14 14 13 13 13 13 13 13 13 13 13 13 13 12 12 12 12 12 12 12 12
18 17 17 17 17 17 16 16 16 16 16 15 15 15 15 15 14 14 14 14 14 13 13 13 13 13 13 13 13 13 13 13 13 13 12 12 12 12 12 12 12 12 12
18 17 17 17 17 16 16 16 16 16 15 15 15 15 15 14 14 14 14 13 13 13 13 13 13 13 13 13 13 13 13 12 12 12 12 12 12 12 12 12 12 11 11
18 17 17 17 17 16 16 16 16 15 15 15 15 15 14 14 14 14 13 13 13 13 13 12 12 12 12 12 12 12 12 12 12 12 12 12 12 12 11 11 11 11 11
17 17 17 16 16 16 16 16 15 15 15 15 14 14 14 14 14 13 13 13 13 13 12 12 12 12 12 12 12 12 12 12 12 12 12 12 12 12 12 11 11 11 11
17 17 17 16 16 16 16 15 15 15 15 14 14 14 14 14 13 13 13 13 12 12 12 12 12 12 12 12 11 11 11 11 11 11 11 11 11 12 11 11 11 11 11
17 17 16 16 16 16 15 15 15 15 14 14 14 14 14 14 13 13 13 12 12 12 12 12 12 12 12 12 11 11 11 11 11 11 11 11 11 11 11 11 11 11 11
17 17 16 16 16 16 15 15 15 14 14 14 14 14 13 13 13 13 13 12 12 12 12 12 12 11 11 11 11 11 11 11 11 11 11 11 11 11 11 10 11 10 11
17 16 16 16 16 15 15 15 15 14 14 14 14 13 13 13 13 13 13 13 12 12 12 12 11 11 11 11 11 11 11 10 10 10 10 10 10 10 10 10 10 10 10
16 16 16 16 15 15 15 15 14 14 14 14 14 13 13 13 13 13 13 12 12 12 12 11 11 11 11 11 11 11 10 10 10 10 10 10 10 10 10 10 10 10 10
16 16 15 15 15 15 15 14 14 14 14 13 13 13 13 13 13 12 12 12 12 12 11 11 11 11 11 11 10 10 10 10 10 10 10 10 10 10 10 10 10 10 10
15 15 15 15 15 14 14 14 14 14 13 13 13 13 13 13 13 12 12 12 12 11 11 11 11 10 10 10 10 10 10 10 10 10 10 10 9 9 9 9 9 9 9
15 15 15 15 14 14 14 14 14 14 13 13 13 13 13 13 13 12 12 12 12 11 11 11 11 10 10 10 10 10 10 10 10 9 9 9 9 9 9 9 9 9 9
15 15 14 14 14 14 13 13 13 13 13 13 13 13 13 12 12 12 12 12 12 11 11 11 11 10 10 10 10 10 10 9 9 9 9 9 9 9 9 9 9 9 9
14 14 14 14 13 13 13 13 13 13 13 13 13 13 13 12 12 12 12 12 11 11 11 11 10 10 10 10 10 9 9 9 9 9 9 9 9 9 9 9 9 9 9
14 14 14 13 13 13 13 12 12 12 12 12 12 12 12 12 12 12 12 11 11 11 11 10 10 10 10 9 9 9 9 9 9 9 9 9 8 8 8 8 8 8 8
14 14 13 13 13 13 13 12 12 12 12 12 12 12 12 12 12 11 11 11 11 10 10 10 10 10 9 9 9 9 9 9 9 8 8 8 8 8 8 8 8 8 8
14 13 13 13 13 12 12 12 12 12 12 12 12 12 12 12 11 11 11 11 11 10 10 10 10 10 10 9 9 9 8 8 8 8 8 8 8 8 8 8 8 8 8
13 13 13 13 12 12 12 12 12 12 12 12 11 11 11 11 11 11 11 11 10 10 10 10 10 9 9 9 9 9 8 8 8 8 8 8 7 7 7 7 7 7 7
13 13 12 12 12 12 12 12 12 11 11 11 11 11 11 11 11 11 10 10 10 10 10 9 9 9 9 9 9 8 8 8 8 8 7 7 7 7 7 7 7 7 7
12 12 12 12 12 12 12 12 11 11 11 11 11 11 10 10 10 10 10 10 10 9 9 9 9 9 9 8 8 8 8 8 8 7 7 7 7 7 7 7 7 7 7
Wind_Speed
4 4 3 3 2 2 2 2 2 1 1 1 1 1 1 1 1 1 1 1 1 2 2 1 1 1 1 1 1 1 1 2 3 0 0 1 2 2 2 2 3 3 3
4 4 3 3 2 2 2 2 2 2 1 1 1 1 1 1 1 1 1 1 1 1 1 1 1 1 1 1 1 1 1 2 3 2 0 1 1 1 2 2 2 2 2
4 4 3 2 2 2 2 2 2 2 1 1 1 1 1 1 0 0 1 0 1 1 1 1 0 1 1 1 1 1 1 2 2 3 1 0 1 1 2 2 2 1 1
4 4 3 3 3 2 2 2 2 2 2 1 1 1 1 1 1 0 1 1 1 1 1 1 1 1 1 1 1 1 2 2 3 3 2 1 0 1 2 1 0 0 0
5 4 4 3 2 2 2 2 2 2 2 1 2 1 1 1 1 1 1 2 1 1 1 1 1 1 1 1 1 1 2 2 2 2 2 1 0 1 1 1 1 0 1
6 5 4 3 2 2 2 2 2 2 2 2 2 2 1 1 1 2 2 2 1 1 0 1 1 2 2 2 2 2 3 3 3 2 2 2 2 2 2 2 2 1 0
5 5 4 4 3 3 3 2 2 3 3 2 2 2 2 0 1 2 2 2 1 0 0 0 1 2 2 2 2 3 1 1 3 4 4 4 4 4 3 2 2 2 2
5 4 4 4 3 3 2 3 3 2 3 3 2 3 2 1 0 1 2 2 1 0 0 1 1 1 1 0 1 1 2 2 3 3 4 5 5 5 5 4 4 2 0
5 4 4 4 4 3 3 3 3 3 2 2 2 2 2 2 2 1 2 1 0 1 1 0 1 1 2 0 1 0 2 3 3 3 3 4 5 5 5 3 3 3 1
5 4 3 4 3 3 3 3 3 3 3 3 2 3 3 3 2 2 2 1 1 1 1 2 2 2 2 1 1 1 1 3 2 2 2 2 1 2 4 4 5 4 2
4 4 3 3 3 3 2 2 2 2 2 2 2 2 2 3 3 3 3 2 2 1 2 2 3 3 2 2 1 2 3 2 1 1 1 2 1 1 1 3 4 5 4
4 3 3 2 2 2 2 2 2 2 2 2 2 1 1 2 2 3 3 4 3 3 3 3 3 3 2 2 1 2 2 1 0 1 1 1 2 2 2 2 3 5 5
4 3 2 2 1 2 3 2 2 2 2 2 2 2 2 1 1 2 2 4 5 3 3 4 4 3 3 2 3 3 2 0 1 1 2 3 3 2 1 1 2 2 2
4 3 2 2 1 1 2 2 2 3 3 3 3 3 3 2 2 2 1 1 2 2 2 3 3 4 3 3 3 2 2 2 2 3 3 3 2 1 1 1 2 2 2
3 2 2 2 2 1 1 2 3 4 5 5 5 4 4 4 5 6 3 2 2 2 1 1 1 1 2 2 2 2 2 2 2 2 2 2 2 2 2 2 2 1 2
2 2 2 2 1 2 1 1 3 4 5 6 7 6 5 7 6 6 5 5 4 3 2 1 2 3 3 3 3 3 3 3 3 3 3 3 3 3 3 2 2 2 3
4 3 2 2 2 2 2 2 2 3 3 5 6 7 7 7 6 6 6 4 3 4 2 2 3 3 4 3 3 3 4 4 3 3 3 3 3 3 3 3 3 3 4
3 3 2 2 2 2 2 3 3 3 2 3 4 5 6 6 6 6 5 3 1 2 3 4 4 4 4 4 4 4 4 3 3 3 3 4 4 3 3 4 4 4 4
3 2 2 2 2 2 2 2 2 3 3 3 2 3 4 3 3 4 5 3 4 4 4 5 5 4 4 4 4 4 4 4 4 3 3 4 4 4 4 4 4 5 5
3 3 3 2 2 1 1 1 1 2 2 2 3 3 1 1 1 2 3 3 4 4 4 5 5 4 4 4 3 3 3 4 4 4 4 4 4 4 5 5 5 4 5
3 2 2 2 2 2 2 2 2 2 2 3 3 4 4 3 3 3 3 4 5 5 5 4 4 3 3 3 3 3 4 4 4 4 4 4 4 4 4 4 5 5 5
3 3 2 2 2 2 2 2 2 2 2 3 2 2 3 2 2 3 3 4 4 4 4 4 4 3 3 3 3 4 4 4 4 3 3 3 3 4 4 4 4 4 4
3 2 2 2 2 2 2 1 2 2 2 2 2 2 2 2 2 2 3 3 3 3 3 3 3 3 3 3 4 3 4 4 4 4 4 4 4 3 3 4 4 4 3
3 3 3 2 2 2 2 2 2 2 1 1 1 2 2 2 2 2 2 2 2 3 3 3 4 4 4 3 3 3 3 4 3 4 4 4 4 3 3 3 4 5 4
1 2 2 2 3 2 2 2 2 2 2 2 2 2 2 2 2 2 2 2 2 2 2 2 2 3 4 4 3 3 3 3 3 3 3 3 4 4 4 4 4 4 4
1 1 1 2 2 2 2 2 2 2 2 2 2 2 2 2 2 2 2 1 1 2 2 1 2 2 2 2 3 3 3 4 4 4 3 3 4 4 4 4 5 4 4
Wind_Direction
175 173 166 176 174 161 163 190 195 185 164 142 150 116 76 61 65 70 44 59 65 23 29 63 57 64 68 50 60 82 98 124 141 199 10 35 62 69 65 102 126 141 169
174 171 174 178 171 169 191 210 175 158 153 142 135 128 121 101 97 91 81 84 94 65 41 84 53 79 63 59 77 88 108 130 137 149 132 49 55 90 98 101 100 118 147
163 160 158 162 165 185 212 209 165 142 132 118 121 134 130 111 112 132 163 158 118 100 117 120 133 95 69 60 89 95 103 108 126 135 148 113 55 76 76 78 74 69 128
159 160 168 180 188 197 198 184 159 145 138 136 130 121 104 76 69 79 83 86 75 61 79 98 98 121 177 183 125 119 115 107 110 117 118 101 79 64 101 120 69 35 17
163 171 187 185 171 160 162 172 168 159 162 155 125 118 107 103 83 97 97 101 93 61 30 22 54 82 69 162 162 164 132 122 124 125 123 99 103 147 188 198 170 150 358
167 179 180 163 156 167 190 185 164 167 171 144 147 138 122 117 102 97 107 97 91 93 42 334 360 21 28 34 73 130 144 152 163 160 169 184 222 215 204 179 159 129 277
162 170 170 168 171 192 197 188 185 185 169 160 173 158 155 133 108 107 100 111 93 102 175 356 351 13 29 35 40 44 48 174 177 178 190 211 211 207 185 189 188 179 211
152 165 172 171 184 202 193 189 193 182 176 180 182 178 164 200 180 161 137 112 93 326 245 176 148 328 340 58 68 19 339 306 254 209 204 218 219 209 193 192 190 172 231
164 179 184 177 181 190 195 208 205 189 188 190 192 181 187 242 238 182 149 121 97 296 295 239 187 241 291 214 107 44 332 316 306 256 230 222 223 218 193 158 158 155 215
180 182 182 181 175 187 203 212 205 187 191 185 200 200 193 218 228 205 178 168 213 280 309 310 288 270 282 292 152 172 277 287 305 333 338 328 240 207 197 187 183 183 194
172 163 166 179 182 180 192 204 191 182 178 188 202 219 211 220 230 223 198 181 201 231 266 280 284 282 270 285 215 216 240 251 284 306 319 326 329 309 244 211 197 189 196
151 156 170 183 191 175 171 196 185 173 183 207 198 228 248 238 229 243 220 200 193 199 238 253 265 274 263 280 277 270 277 306 44 20 332 308 297 281 269 248 226 216 215
139 158 179 186 193 177 179 193 198 189 190 211 205 217 238 256 262 250 216 206 205 209 241 252 256 257 255 267 270 279 278 252 187 227 246 253 248 245 257 286 283 256 259
150 170 183 179 196 175 180 186 191 204 201 203 207 212 223 228 245 257 248 233 222 233 266 278 274 261 254 251 266 276 245 222 215 225 239 251 259 253 242 241 260 263 275
159 179 187 196 198 192 205 210 209 221 208 200 210 207 204 229 237 214 198 210 214 223 234 349 354 309 289 286 276 262 251 252 244 239 234 247 261 258 254 236 232 234 235
161 194 213 211 205 190 200 275 271 241 236 218 215 209 219 222 223 215 215 220 221 187 147 207 246 248 249 257 267 272 255 243 238 230 231 236 247 251 255 253 238 231 240
177 202 215 213 207 201 205 208 261 298 284 262 253 238 229 227 221 217 218 222 209 162 173 230 240 242 245 245 246 250 255 249 229 223 232 240 243 246 244 244 242 243 247
184 198 195 205 207 209 219 220 213 222 263 288 279 258 248 239 228 219 203 166 196 192 214 230 238 239 242 244 243 244 251 254 242 238 242 246 244 240 240 242 237 235 245
204 213 208 198 200 211 222 229 229 227 236 254 279 291 273 251 232 223 184 190 216 230 230 235 235 234 237 239 238 234 233 238 242 241 245 245 242 239 243 245 244 244 243
223 225 204 198 209 225 226 230 255 252 253 249 252 251 242 134 229 235 209 216 222 235 238 240 240 235 236 237 239 238 240 246 248 243 245 247 244 238 243 245 241 243 246
215 220 206 201 213 222 225 222 226 222 238 248 251 243 206 207 222 225 224 223 224 231 237 238 239 239 238 236 237 243 247 250 247 246 247 249 245 245 245 242 243 242 245
201 203 203 208 221 231 228 217 224 230 233 239 262 272 232 227 231 228 231 237 235 232 230 223 224 230 225 226 232 240 244 247 250 251 252 252 252 251 251 250 250 247 246
195 195 202 202 203 213 218 225 226 231 249 254 242 238 223 233 240 242 245 242 242 240 237 230 223 229 235 236 225 223 236 242 243 241 245 257 260 252 246 247 247 246 244
197 197 192 191 197 206 219 235 241 239 243 254 256 240 226 230 248 254 255 259 258 252 243 233 230 235 235 240 243 237 239 242 241 238 238 245 252 252 247 249 247 238 234
218 194 194 202 208 213 223 235 243 244 244 249 249 245 238 233 246 260 265 270 279 277 274 256 241 239 237 236 235 234 244 252 259 256 241 237 243 245 243 244 245 238 233
217 202 200 201 200 198 203 217 238 251 253 266 265 244 231 225 235 253 262 271 296 310 312 286 253 248 244 243 242 247 255 261 266 267 253 242 241 245 243 242 244 239 232
Height
1518 1518 1518 1518 1517 1517 1517 1517 1517 1516 1516 1515 1515 1514 1513 1512 1511 1511 1510 1509 1508 1508 1507 1507 1506 1506 1506 1505 1505 1505 1505 1505 1505 1506 1507 1507 1507 1507 1507 1508 1508 1509 1510
1517 1517 1517 1516 1516 1516 1516 1516 1516 1515 1515 1514 1514 1513 1512 1511 1510 1510 1509 1508 1507 1506 1506 1505 1505 1505 1504 1504 1504 1503 1503 1504 1504 1504 1505 1505 1505 1506 1506 1506 1507 1508 1508
1516 1516 1515 1515 1515 1514 1514 1514 1514 1514 1513 1513 1512 1512 1511 1510 1510 1509 1508 1507 1506 1505 1505 1504 1503 1503 1502 1502 1502 1502 1502 1502 1502 1502 1503 1503 1504 1504 1505 1505 1505 1506 1507
1514 1514 1514 1513 1513 1513 1513 1513 1513 1512 1512 1512 1511 1511 1510 1510 1509 1508 1507 1506 1505 1505 1504 1503 1503 1502 1502 1501 1501 1501 1501 1501 1501 1501 1501 1502 1502 1502 1503 1503 1503 1504 1504
1513 1513 1513 1512 1512 1512 1512 1512 1511 1511 1511 1510 1510 1509 1509 1508 1507 1507 1506 1505 1504 1503 1503 1502 1502 1501 1500 1500 1499 1499 1499 1499 1499 1499 1499 1500 1500 1500 1500 1501 1501 1501 1502
1511 1511 1511 1511 1511 1511 1511 1510 1509 1509 1509 1509 1508 1508 1507 1507 1506 1506 1505 1504 1503 1502 1501 1501 1500 1500 1499 1498 1498 1498 1498 1498 1498 1498 1497 1497 1498 1498 1498 1499 1499 1499 1499
1509 1509 1510 1510 1510 1509 1509 1509 1508 1507 1507 1506 1506 1506 1505 1505 1505 1504 1503 1503 1502 1501 1500 1499 1499 1498 1498 1497 1497 1497 1497 1496 1497 1496 1496 1495 1495 1496 1496 1496 1497 1497 1498
1508 1508 1508 1508 1508 1508 1507 1507 1506 1506 1505 1505 1504 1504 1504 1504 1503 1503 1502 1501 1500 1499 1499 1498 1498 1497 1497 1496 1495 1495 1495 1495 1495 1494 1494 1494 1494 1494 1494 1495 1495 1495 1496
1506 1506 1506 1506 1505 1505 1505 1505 1504 1504 1503 1503 1503 1503 1502 1502 1502 1501 1501 1500 1499 1498 1497 1497 1496 1496 1495 1495 1494 1493 1493 1493 1493 1493 1493 1492 1492 1492 1492 1493 1493 1493 1493
1503 1503 1504 1504 1503 1503 1503 1503 1503 1502 1501 1501 1501 1501 1500 1500 1500 1499 1499 1498 1497 1496 1496 1496 1495 1494 1494 1493 1492 1492 1491 1491 1491 1490 1491 1490 1490 1490 1490 1491 1491 1491 1490
1502 1502 1502 1502 1502 1502 1501 1501 1501 1500 1500 1499 1499 1499 1499 1498 1498 1497 1497 1496 1495 1495 1494 1494 1493 1492 1492 1491 1491 1490 1490 1489 1489 1488 1488 1488 1488 1488 1488 1488 1488 1488 1488
1499 1499 1500 1500 1500 1500 1500 1499 1499 1498 1498 1497 1497 1497 1497 1496 1496 1495 1495 1494 1494 1493 1492 1491 1491 1490 1489 1489 1489 1488 1488 1487 1487 1486 1486 1485 1485 1485 1485 1485 1485 1485 1485
1497 1497 1498 1498 1498 1498 1498 1497 1497 1496 1496 1495 1495 1494 1494 1494 1493 1493 1493 1492 1491 1491 1490 1489 1489 1488 1487 1486 1486 1486 1485 1485 1484 1483 1483 1483 1483 1483 1483 1483 1482 1482 1482
1495 1495 1495 1495 1495 1495 1496 1495 1495 1494 1493 1493 1493 1492 1492 1491 1491 1490 1490 1489 1489 1488 1488 1487 1486 1486 1485 1485 1484 1484 1483 1482 1482 1481 1481 1481 1481 1480 1480 1479 1479 1478 1478
1493 1493 1493 1493 1493 1493 1493 1493 1492 1492 1492 1491 1490 1490 1489 1488 1488 1488 1487 1486 1486 1486 1485 1484 1484 1483 1482 1482 1481 1481 1480 1480 1479 1479 1478 1478 1477 1477 1476 1476 1476 1475 1475
1491 1491 1491 1491 1491 1490 1490 1490 1490 1490 1490 1489 1488 1488 1487 1486 1486 1485 1485 1484 1483 1483 1482 1481 1481 1480 1479 1479 1478 1477 1477 1476 1476 1476 1475 1475 1474 1473 1473 1472 1472 1472 1471
1489 1489 1488 1488 1488 1488 1487 1487 1487 1487 1487 1486 1485 1485 1484 1483 1483 1482 1482 1482 1481 1480 1479 1478 1478 1477 1476 1475 1475 1474 1474 1473 1473 1472 1472 1471 1470 1470 1469 1468 1468 1468 1467
1487 1487 1486 1486 1485 1485 1485 1485 1485 1484 1483 1483 1482 1482 1481 1480 1480 1480 1479 1479 1478 1477 1476 1475 1474 1474 1473 1472 1471 1471 1470 1470 1469 1468 1467 1467 1466 1465 1465 1464 1463 1463 1463
1484 1484 1484 1484 1483 1483 1483 1482 1482 1482 1481 1480 1479 1479 1479 1478 1477 1477 1476 1475 1474 1473 1472 1472 1471 1470 1469 1469 1468 1467 1466 1465 1465 1464 1463 1462 1461 1461 1460 1459 1459 1458 1458
1482 1481 1481 1481 1480 1480 1480 1479 1479 1478 1478 1477 1476 1475 1475 1474 1473 1472 1471 1470 1470 1469 1469 1468 1467 1467 1466 1465 1464 1463 1462 1461 1460 1459 1458 1457 1456 1456 1455 1454 1454 1453 1453
1479 1478 1478 1478 1477 1477 1477 1476 1476 1475 1475 1473 1473 1472 1472 1471 1470 1469 1468 1467 1467 1466 1465 1465 1464 1463 1462 1461 1460 1459 1458 1456 1455 1454 1452 1452 1451 1450 1450 1449 1449 1449 1448
1476 1476 1476 1475 1475 1474 1474 1474 1473 1472 1471 1470 1469 1469 1468 1467 1466 1466 1465 1465 1464 1463 1462 1461 1460 1459 1458 1457 1456 1454 1453 1451 1450 1449 1447 1446 1446 1445 1444 1444 1444 1444 1444
1473 1473 1473 1473 1472 1472 1472 1471 1470 1469 1468 1467 1466 1466 1465 1464 1463 1463 1462 1461 1460 1459 1459 1457 1456 1455 1454 1453 1452 1450 1448 1447 1445 1444 1443 1442 1441 1440 1439 1439 1439 1439 1439
1470 1469 1469 1470 1470 1469 1468 1468 1467 1467 1466 1465 1464 1462 1462 1461 1460 1459 1459 1458 1457 1456 1455 1453 1452 1451 1450 1449 1447 1446 1444 1442 1441 1439 1438 1437 1436 1435 1435 1434 1434 1434 1435
1468 1467 1467 1467 1467 1466 1466 1465 1464 1463 1463 1462 1461 1460 1459 1458 1457 1456 1455 1454 1453 1452 1450 1449 1448 1447 1445 1444 1443 1441 1440 1438 1436 1435 1434 1433 1432 1431 1430 1430 1430 1430 1431
1465 1465 1465 1464 1464 1464 1463 1462 1461 1461 1460 1459 1458 1457 1456 1455 1453 1452 1451 1450 1449 1447 1446 1445 1444 1443 1441 1440 1439 1437 1435 1434 1432 1431 1429 1428 1428 1427 1426 1426 1426 1426 1427